Mackall AAF, NC

2:58 PM EDT on October 18, 2019 (GMT -0400)
Mackall Army Air Field

Weather History for KHFF - September, 2019

Change the Weather History Date:

Thursday, September 19, 2019

  Actual Average Record
Temperature  
Mean Temperature 64 °F -  
Max Temperature 77 °F 78 °F 91 °F (2010)
Min Temperature 53 °F 60 °F 46 °F (2001)
Growing Degree Days 14 (Base 50)    
Moisture  
Dew Point 51 °F    
Average Humidity 67    
Maximum Humidity 100    
Minimum Humidity 34    
Precipitation  
Precipitation 0.00 in - - ()
Sea Level Pressure  
Sea Level Pressure 30.29 in    
Wind  
Wind Speed 5 mph ()    
Max Wind Speed 15 mph    
Max Gust Speed 22 mph    
Visibility 10.0 miles    
Events      
Averages and records for this station are not official NWS values.
T = Trace of Precipitation, MM = Missing Value Source: Averaged Metar Reports

Daily Weather History Graph

Daily Weather History Graph

Search for Another Location

Airport or City:

Astronomy

Sep. 19, 2019 Rise Set
Actual Time 7:03 AM EDT 7:19 PM EDT
Civil Twilight 6:38 AM EDT 7:44 PM EDT
Nautical Twilight 6:08 AM EDT 8:14 PM EDT
Astronomical Twilight 5:38 AM EDT 8:44 PM EDT
Moon 10:39 PM EDT (9/19) 11:54 AM EDT (9/19)
Length of Visible Light 13h 06m
Length of Day
12h 15m
Waning Gibbous, 74% of the Moon is Illuminated
Sep 19
Waning Gibbous
Sep 21
Last Quarter
Sep 28
New
Oct 5
First Quarter
Oct 13
Full

Hourly Weather History & Observations

Time (EDT) Temp. Dew Point Humidity Pressure Visibility Wind Dir Wind Speed Gust Speed Precip Events Conditions
12:56 AM 61.9 °F 54.3 °F 76% 30.24 in 10.0 mi East 3.5 mph - N/A   Clear
1:56 AM 59.0 °F 54.5 °F 85% 30.25 in 10.0 mi ENE 3.5 mph - N/A   Clear
2:56 AM 55.6 °F 52.7 °F 90% 30.25 in 10.0 mi NNE 3.5 mph - N/A   Clear
3:56 AM 55.0 °F 53.4 °F 94% 30.25 in 10.0 mi NNE 3.5 mph - N/A   Clear
4:56 AM 54.3 °F 53.1 °F 95% 30.26 in 10.0 mi NNE 4.6 mph - N/A   Clear
5:46 AM 53.6 °F 53.6 °F 100% 30.28 in 10.0 mi NNE 4.6 mph - N/A   Clear
5:56 AM 54.1 °F 52.9 °F 95% 30.28 in 10.0 mi North 3.5 mph - N/A   Clear
6:56 AM 54.1 °F 52.5 °F 94% 30.30 in 10.0 mi NNE 5.8 mph - N/A   Clear
7:56 AM 56.8 °F 54.5 °F 92% 30.30 in 10.0 mi North 6.9 mph - N/A   Clear
8:56 AM 64.4 °F 51.8 °F 64% 30.31 in 10.0 mi East 9.2 mph - N/A   Clear
9:56 AM 67.6 °F 48.4 °F 50% 30.32 in 10.0 mi East 13.8 mph 21.9 mph N/A   Clear
10:56 AM 70.7 °F 48.4 °F 45% 30.32 in 10.0 mi ENE 15.0 mph 19.6 mph N/A   Clear
11:56 AM 72.5 °F 48.4 °F 42% 30.31 in 10.0 mi ENE 12.7 mph 17.3 mph N/A   Clear
12:56 PM 74.1 °F 46.8 °F 38% 30.30 in 10.0 mi ENE 12.7 mph - N/A   Clear
1:56 PM 75.0 °F 47.1 °F 37% 30.29 in 10.0 mi East 8.1 mph - N/A   Clear
2:56 PM 76.1 °F 48.6 °F 38% 30.28 in 10.0 mi SE 3.5 mph - N/A   Clear
3:56 PM 76.6 °F 47.3 °F 35% 30.27 in 10.0 mi East 6.9 mph - N/A   Partly Cloudy
4:56 PM 76.6 °F 46.0 °F 34% 30.26 in 10.0 mi Calm Calm - N/A   Clear
5:56 PM 74.7 °F 49.5 °F 41% 30.27 in 10.0 mi ESE 8.1 mph - N/A   Clear
6:56 PM 71.1 °F 50.4 °F 48% 30.27 in 10.0 mi ESE 5.8 mph - N/A   Clear
7:56 PM 66.7 °F 51.1 °F 57% 30.28 in 10.0 mi ESE 3.5 mph - N/A   Clear
8:31 PM 64.4 °F 51.8 °F 64% 30.30 in 10.0 mi ESE 3.5 mph - N/A   Clear
8:56 PM 64.2 °F 51.6 °F 64% 30.30 in 10.0 mi East 3.5 mph - N/A   Clear
9:56 PM 61.2 °F 51.6 °F 71% 30.30 in 10.0 mi Calm Calm - N/A   Clear
10:23 PM 55.4 °F 50.0 °F 82% 30.32 in 10.0 mi Calm Calm - N/A   Clear
10:56 PM 54.3 °F 50.4 °F 86% 30.32 in 10.0 mi Calm Calm - N/A   Clear
11:56 PM 53.8 °F 50.0 °F 87% 30.32 in 10.0 mi Calm Calm - N/A   Clear